ASTROSAT

Last updated on Wed Sep 09 2026 00:03:36 GMT+0000 (Coordinated Universal Time)

1 40930U 15052A 26251.17061209 .00001370 00000+0 84810-4 0 9996 2 40930 5.9970 277.9899 0007629 143.5208 216.5440 14.82632867592168
UTC large
Height (km)
Speed (km/s)
/
Latitude / Longitude
Inclination (degrees)
Orbital Period (minutes)
Azimuth
Elevation
Range (km)
Doppler Factor

Next 0 passes for location: London (51.5072 / 0.1276)

No passes found over London.
ASTROSAT